FW8282 Weather Reports


Display with metric or nautical units.
time (UTC)temp
F
wind
direction
speed
MPH
gust
MPH
rain 1hr
in
rain 24hr
in
rain mn
in
humidity
%
barometer
mb
20260505072400 64 151 0.0 0.0 0.00 0.00 0.00 93 1013.3
20260505071856 64 157 0.0 0.0 0.00 0.00 0.00 93 1013.3
20260505071352 64 149 0.0 0.0 0.00 0.00 0.00 92 1013.7
20260505070851 64 151 0.0 0.0 0.00 0.00 0.00 92 1013.4
20260505070347 64 150 0.0 0.0 0.00 0.00 0.00 92 1013.7
20260505065842 64 152 0.0 0.0 0.00 0.00 0.00 92 1013.5
20260505065339 64 151 0.0 0.0 0.00 0.00 0.00 92 1013.4
20260505064836 64 151 0.0 0.0 0.00 0.00 0.00 91 1013.5
20260505064333 65 150 0.0 0.0 0.00 0.00 0.00 91 1013.6
20260505063832 65 149 0.0 0.0 0.00 0.00 0.00 91 1013.8
20260505063327 65 150 0.0 0.0 0.00 0.00 0.00 90 1013.6
20260505062824 65 149 0.0 0.0 0.00 0.00 0.00 90 1013.8
20260505062321 65 149 0.0 0.0 0.00 0.00 0.00 90 1014.0
20260505061818 65 149 0.0 0.0 0.00 0.00 0.00 89 1014.2
20260505061316 66 149 0.0 0.0 0.00 0.00 0.00 89 1014.1
20260505060813 66 147 0.0 0.0 0.00 0.00 0.00 88 1014.1
20260505060310 66 149 0.0 0.0 0.00 0.00 0.00 87 1014.2
20260505055806 66 148 0.0 0.0 0.00 0.00 0.00 86 1014.2
20260505055303 67 148 0.0 0.0 0.00 0.00 0.00 86 1014.4
20260505054800 68 154 0.0 0.0 0.00 0.00 0.00 85 1014.4
20260505054257 68 150 0.0 0.0 0.00 0.00 0.00 85 1014.4
20260505053755 68 142 0.0 0.0 0.00 0.00 0.00 85 1014.4
20260505053252 68 156 0.0 0.0 0.00 0.00 0.00 84 1014.8
20260505052749 68 150 0.0 0.0 0.00 0.00 0.00 84 1014.5
20260505052246 68 154 0.0 0.0 0.00 0.00 0.00 84 1014.6
20260505051742 68 137 0.0 0.0 0.00 0.00 0.00 84 1014.8
20260505051240 69 154 0.0 0.0 0.00 0.00 0.00 83 1014.5
20260505050738 69 166 0.0 0.0 0.00 0.00 0.00 82 1014.8
20260505050237 69 146 0.0 0.0 0.00 0.00 0.00 82 1014.8
20260505041706 70 150 0.0 0.0 0.00 0.00 0.00 79 1015.1
20260505041203 70 153 0.0 0.0 0.00 0.00 0.00 79 1015.3
20260505040701 70 156 0.0 0.0 0.00 0.00 0.00 79 1015.0
20260505040158 70 164 0.0 0.0 0.00 0.00 0.00 79 1015.1
20260505035654 70 147 0.0 0.0 0.00 0.00 0.00 79 1015.0
20260505035150 70 147 0.0 0.0 0.00 0.00 0.00 79 1015.4
20260505034647 70 157 0.0 0.0 0.00 0.00 0.00 78 1015.2
20260505034144 70 146 0.0 0.0 0.00 0.00 0.00 78 1015.2
20260505033640 70 152 0.0 0.0 0.00 0.00 0.00 78 1015.2
20260505033139 71 172 0.0 0.0 0.00 0.00 0.00 77 1015.1
20260505032637 71 150 0.0 0.0 0.00 0.00 0.00 77 1015.3
20260505032133 71 139 0.0 0.0 0.00 0.00 0.00 77 1015.2
20260505031630 71 136 0.0 0.0 0.00 0.00 0.00 77 1015.1
20260505031126 71 141 0.0 0.0 0.00 0.00 0.00 77 1015.0
20260505030623 71 158 0.0 0.0 0.00 0.00 0.00 76 1015.2
20260505030119 71 174 0.0 0.0 0.00 0.00 0.00 76 1015.2
20260505025615 71 124 0.0 0.0 0.00 0.00 0.00 76 1015.2
20260505025114 71 153 0.0 0.0 0.00 0.00 0.00 76 1015.0
20260505024611 71 145 0.0 0.0 0.00 0.00 0.00 76 1014.8
20260505024108 72 137 0.0 0.0 0.00 0.00 0.00 75 1014.9
20260505023605 72 158 0.0 0.0 0.00 0.00 0.00 75 1014.8
20260505023103 72 155 0.0 0.0 0.00 0.00 0.00 75 1014.8
20260505022600 72 157 0.0 0.0 0.00 0.00 0.00 75 1014.9
20260505022057 72 146 0.0 0.0 0.00 0.00 0.00 75 1015.0
20260505021553 72 153 0.0 0.0 0.00 0.00 0.00 74 1014.7
20260505021050 72 146 0.0 1.0 0.00 0.00 0.00 74 1014.9
20260505020550 72 166 0.0 0.0 0.00 0.00 0.00 73 1014.7
20260505020047 72 156 0.0 0.0 0.00 0.00 0.00 74 1014.8
20260505015544 72 150 0.0 0.0 0.00 0.00 0.00 74 1014.7
20260505015041 73 170 0.0 0.0 0.00 0.00 0.00 73 1014.5
20260505014538 73 143 0.0 0.0 0.00 0.00 0.00 73 1014.2
20260505014035 73 173 0.0 0.0 0.00 0.00 0.00 73 1014.1
20260505013532 73 128 0.0 1.0 0.00 0.00 0.00 72 1014.2
20260505013030 73 169 0.0 0.0 0.00 0.00 0.00 72 1014.1
20260505012527 74 141 0.0 0.0 0.00 0.00 0.00 71 1014.2
20260505012025 74 144 0.0 0.0 0.00 0.00 0.00 71 1014.2
20260505011520 74 156 0.0 0.0 0.00 0.00 0.00 71 1014.2
20260505011017 74 165 0.0 0.0 0.00 0.00 0.00 71 1013.7
20260505010512 74 143 0.0 0.0 0.00 0.00 0.00 70 1014.1
20260505010009 74 120 0.0 0.0 0.00 0.00 0.00 70 1014.0
20260505005506 75 118 0.0 0.0 0.00 0.00 0.00 70 1013.9
20260505005004 75 133 0.0 0.0 0.00 0.00 0.00 70 1013.9
20260505004500 75 106 0.0 0.0 0.00 0.00 0.00 69 1013.8
20260505003957 75 161 0.0 0.0 0.00 0.00 0.00 69 1013.7
20260505003454 75 158 0.0 0.0 0.00 0.00 0.00 68 1013.7
20260505002950 76 171 0.0 0.0 0.00 0.00 0.00 68 1013.6
20260505002446 76 151 0.0 0.0 0.00 0.00 0.00 68 1013.7
20260505001945 76 146 0.0 0.0 0.00 0.00 0.00 67 1013.8
20260505001442 76 152 0.0 0.0 0.00 0.00 0.00 67 1013.6
20260505000939 76 160 0.0 0.0 0.00 0.00 0.00 67 1013.6
20260505000437 77 177 0.0 0.0 0.00 0.00 0.00 66 1013.5
20260504235934 77 161 0.0 0.0 0.00 0.00 0.00 65 1013.3
20260504235431 77 168 0.0 2.0 0.00 0.00 0.00 65 1013.0
20260504234927 78 162 1.0 1.0 0.00 0.00 0.00 65 1013.3
20260504234425 78 146 0.0 0.0 0.00 0.00 0.00 64 1013.3
20260504233921 78 131 0.0 0.0 0.00 0.00 0.00 64 1013.1
20260504233417 78 159 1.0 3.0 0.00 0.00 0.00 63 1013.3
20260504232914 79 179 0.0 0.0 0.00 0.00 0.00 62 1013.1
20260504232411 80 160 0.0 0.0 0.00 0.00 0.00 60 1012.9
20260504231908 80 164 0.0 0.0 0.00 0.00 0.00 59 1013.0
20260504231404 81 149 0.0 0.0 0.00 0.00 0.00 59 1012.6
20260504230901 81 164 0.0 0.0 0.00 0.00 0.00 58 1012.7
20260504230358 81 117 0.0 0.0 0.00 0.00 0.00 57 1012.8
20260504225856 81 154 0.0 2.0 0.00 0.00 0.00 57 1013.0
20260504225352 81 160 0.0 0.0 0.00 0.00 0.00 57 1013.0
20260504224850 81 160 0.0 0.0 0.00 0.00 0.00 57 1012.8
20260504224347 80 143 0.0 0.0 0.00 0.00 0.00 58 1012.7
20260504223843 81 115 0.0 0.0 0.00 0.00 0.00 57 1012.8
20260504223339 82 124 0.0 0.0 0.00 0.00 0.00 56 1012.7
20260504222836 84 136 0.0 0.0 0.00 0.00 0.00 53 1013.0
20260504222333 85 158 0.0 0.0 0.00 0.00 0.00 52 1012.8
20260504221831 85 118 0.0 0.0 0.00 0.00 0.00 51 1013.2
20260504221327 85 136 0.0 0.0 0.00 0.00 0.00 51 1012.8
20260504220825 84 145 0.0 0.0 0.00 0.00 0.00 52 1012.9
20260504220321 83 165 0.0 2.0 0.00 0.00 0.00 52 1012.8
20260504215819 82 140 0.0 0.0 0.00 0.00 0.00 52 1012.9
20260504215315 82 160 0.0 0.0 0.00 0.00 0.00 52 1012.8
20260504214811 82 142 0.0 0.0 0.00 0.00 0.00 51 1012.8
20260504214308 82 168 0.0 0.0 0.00 0.00 0.00 51 1012.8
20260504213804 83 137 0.0 0.0 0.00 0.00 0.00 51 1012.8
20260504213301 84 117 0.0 0.0 0.00 0.00 0.00 50 1013.0
20260504212758 87 194 0.0 1.0 0.00 0.00 0.00 47 1012.8
20260504212254 86 193 0.0 0.0 0.00 0.00 0.00 45 1012.9
20260504211752 86 125 0.0 0.0 0.00 0.00 0.00 46 1012.8
20260504211248 85 39 0.0 0.0 0.00 0.00 0.00 46 1012.8
20260504210746 86 128 1.0 2.0 0.00 0.00 0.00 45 1013.0
20260504210243 86 54 0.0 0.0 0.00 0.00 0.00 46 1012.9
20260504205739 85 170 0.0 0.0 0.00 0.00 0.00 45 1012.8
20260504205237 82 167 0.0 0.0 0.00 0.00 0.00 48 1012.9
20260504204735 83 109 1.0 2.0 0.00 0.00 0.00 47 1012.9
20260504204233 83 164 0.0 0.0 0.00 0.00 0.00 47 1013.1
20260504203732 84 139 0.0 1.0 0.00 0.00 0.00 45 1013.0
20260504203229 84 167 0.0 0.0 0.00 0.00 0.00 46 1013.0
20260504202729 83 148 0.0 0.0 0.00 0.00 0.00 43 1013.1
20260504202227 85 142 0.0 0.0 0.00 0.00 0.00 44 1013.1
20260504201724 85 149 0.0 2.0 0.00 0.00 0.00 43 1013.3
20260504201221 86 139 0.0 0.0 0.00 0.00 0.00 44 1013.4
20260504200719 85 159 0.0 0.0 0.00 0.00 0.00 43 1013.3
20260504200214 86 129 0.0 0.0 0.00 0.00 0.00 43 1013.4
20260504195711 86 172 0.0 0.0 0.00 0.00 0.00 42 1013.5
20260504195207 86 71 0.0 0.0 0.00 0.00 0.00 42 1013.6
20260504194704 86 100 1.0 1.0 0.00 0.00 0.00 43 1013.8
20260504194200 86 140 0.0 0.0 0.00 0.00 0.00 42 1013.5
20260504193656 84 80 0.0 0.0 0.00 0.00 0.00 44 1013.8
20260504193154 84 146 0.0 0.0 0.00 0.00 0.00 43 1014.1
20260504192652 86 150 0.0 0.0 0.00 0.00 0.00 42 1014.0
20260504192150 86 179 0.0 1.0 0.00 0.00 0.00 42 1013.9
20260504191649 85 233 0.0 1.0 0.00 0.00 0.00 42 1014.0
20260504191144 84 163 0.0 0.0 0.00 0.00 0.00 44 1014.0
20260504190640 84 159 0.0 0.0 0.00 0.00 0.00 46 1014.1
20260504190137 84 179 4.0 10.0 0.00 0.00 0.00 46 1014.2
20260504185633 84 93 0.0 0.0 0.00 0.00 0.00 45 1014.1
20260504185130 84 156 0.0 0.0 0.00 0.00 0.00 46 1014.3
20260504184626 85 146 0.0 0.0 0.00 0.00 0.00 43 1014.4
20260504184121 86 164 0.0 0.0 0.00 0.00 0.00 43 1014.3
20260504183619 84 201 0.0 0.0 0.00 0.00 0.00 46 1014.7
20260504183116 85 170 2.0 5.0 0.00 0.00 0.00 44 1014.7
20260504182614 85 128 1.0 3.0 0.00 0.00 0.00 46 1014.9
20260504182111 85 138 1.0 3.0 0.00 0.00 0.00 46 1014.9
20260504181608 84 180 0.0 0.0 0.00 0.00 0.00 44 1015.2
20260504181106 84 207 0.0 0.0 0.00 0.00 0.00 45 1015.1
20260504180605 85 172 0.0 0.0 0.00 0.00 0.00 45 1015.3
20260504180103 84 157 1.0 3.0 0.00 0.00 0.00 46 1015.1
20260504175600 85 128 1.0 2.0 0.00 0.00 0.00 45 1015.2
20260504175057 85 123 2.0 2.0 0.00 0.00 0.00 43 1015.0
20260504174555 85 144 1.0 2.0 0.00 0.00 0.00 46 1015.2
20260504174051 83 112 1.0 3.0 0.00 0.00 0.00 46 1015.4
20260504173548 84 215 3.0 3.0 0.00 0.00 0.00 46 1015.3
20260504173046 84 162 0.0 1.0 0.00 0.00 0.00 50 1015.5
20260504172541 84 63 1.0 1.0 0.00 0.00 0.00 47 1015.2
20260504172038 84 168 4.0 5.0 0.00 0.00 0.00 46 1015.5
20260504171535 84 186 0.0 0.0 0.00 0.00 0.00 47 1015.4
20260504171032 84 158 3.0 3.0 0.00 0.00 0.00 47 1015.3
20260504170528 84 129 1.0 1.0 0.00 0.00 0.00 47 1015.6
20260504150912 80 121 1.0 5.0 0.00 0.00 0.00 55 1016.4
20260504150409 80 151 6.0 13.0 0.00 0.00 0.00 54 1016.4
20260504140835 77 152 0.0 1.0 0.00 0.00 0.00 61 1016.5
20260504140331 77 156 0.0 0.0 0.00 0.00 0.00 61 1016.3
20260504130800 72 128 0.0 0.0 0.00 0.00 0.00 72 1015.9
20260504130256 72 214 0.0 0.0 0.00 0.00 0.00 72 1015.9
20260504120220 65 151 0.0 0.0 0.00 0.00 0.00 88 1015.7
20260504110647 61 172 0.0 0.0 0.00 0.00 0.00 93 1015.4
20260504110143 61 139 0.0 0.0 0.00 0.00 0.00 93 1015.4
20260504100609 61 169 0.0 0.0 0.00 0.00 0.00 93 1015.0
20260504100107 61 169 0.0 0.0 0.00 0.00 0.00 93 1014.8
20260504082003 63 170 0.0 0.0 0.00 0.00 0.00 89 1014.7
20260504081500 63 170 0.0 0.0 0.00 0.00 0.00 89 1015.2
20260504080955 63 173 0.0 0.0 0.00 0.00 0.00 89 1015.0
20260504080452 63 169 0.0 0.0 0.00 0.00 0.00 89 1014.9